Terminal Aerodrome Forecast
Issued by NWS Honolulu, HI

Home | Current Version | Previous Version | Text Only | Print | Product List | Glossary On
Versions: 1 2 3 4 5 6 7 8 9 10 11 12 13 14 15 16 17 18 19 20 21 22 23 24 25 26 27 28 29 30 31 32 33 34 35 36 37 38 39 40 41 42 43 44
000
FTPA31 PHFO 202300
TAFHNL
TAF
PHNL 202331Z 2100/2206 05015G25KT P6SM SCT030 BKN045 BKN250
     FM210800 05015G21KT P6SM BKN030 OVC045
     FM211800 05015G25KT P6SM FEW030 BKN045=

USA.gov is the U.S. government's official web portal to all federal, state and local government web resources and services.